Location: Bijele Vode
(45.2833°N, 16.2000°E)
Time: 11:38:37
(UTC+00:00)

X-37B - Visible Passes

Search period start: 20 September 2021 00:00
Search period end: 30 September 2021 00:00
Orbit: 381 x 393 km, 45.0° (Epoch: 29 August)

Date Brightness Start Highest point End Pass type
(mag) Time Alt. Az. Time Alt. Az. Time Alt. Az.
20 Sep 3.3 03:43:14 10° S 03:44:55 14° SE 03:46:37 10° ESE visible
22 Sep 2.5 03:22:47 14° SSW 03:24:33 22° SSE 03:27:06 10° E visible
23 Sep 3.4 02:27:13 13° SE 02:27:13 13° SE 02:28:05 10° ESE visible
23 Sep 1.2 03:59:30 10° WSW 04:02:32 51° SSE 04:05:38 10° E visible
24 Sep 1.6 03:03:52 33° S 03:04:14 34° SSE 03:07:10 10° E visible
25 Sep 3.8 02:08:12 12° ESE 02:08:12 12° ESE 02:08:33 10° E visible
25 Sep 0.7 03:40:29 22° WSW 03:42:21 70° SSE 03:45:30 10° E visible
26 Sep 1.8 02:44:46 39° ESE 02:44:46 39° ESE 02:47:06 10° E visible
27 Sep 0.5 03:21:20 45° WSW 03:22:11 84° S 03:25:21 10° E visible
28 Sep 3.0 02:25:37 23° E 02:25:37 23° E 02:26:58 10° E visible
28 Sep 0.5 03:57:54 15° W 04:00:26 83° S 04:03:37 10° E visible
29 Sep 0.6 03:02:12 80° E 03:02:12 80° E 03:05:13 10° E visible
